CST,Max TemperatureF,Mean TemperatureF,Min TemperatureF,Max Dew PointF,MeanDew PointF,Min DewpointF,Max Humidity, Mean Humidity, Min Humidity, Max Sea Level PressureIn, Mean Sea Level PressureIn, Min Sea Level PressureIn, Max VisibilityMiles, Mean VisibilityMiles, Min VisibilityMiles, Max Wind SpeedMPH, Mean Wind SpeedMPH, Max Gust SpeedMPH,PrecipitationIn, CloudCover, Events, WindDirDegrees
2011-11-1,79,64,51,63,58,49,96,77,56,30.16,30.11,30.07,10,10,10,17,7,18,0.01,0,,106
2011-11-2,82,73,64,69,65,63,100,79,52,30.08,30.03,30.00,10,10,10,17,8,,0.00,1,,137
2011-11-3,68,56,43,69,37,24,97,50,22,30.32,30.23,30.08,10,10,10,37,19,48,0.00,3,Rain,344
2011-11-4,66,50,35,42,31,22,90,55,19,30.27,30.20,30.12,10,10,10,10,6,,0.00,0,,25
2011-11-5,75,59,43,66,54,39,89,77,59,30.10,30.00,29.91,10,10,10,18,8,24,0.00,3,,108
2011-11-6,80,76,71,70,69,66,93,81,69,30.04,29.99,29.94,10,10,10,16,11,24,0.00,7,,137
2011-11-7,82,76,71,72,71,69,96,85,65,30.04,29.99,29.94,10,10,10,23,12,29,0.00,2,,135
2011-11-8,82,76,68,75,70,54,100,85,55,30.04,29.92,29.87,10,10,8,14,9,22,0.04,5,,177
2011-11-9,68,60,52,49,43,37,89,54,39,30.33,30.20,30.05,10,10,10,24,17,34,0.07,3,Rain,353
2011-11-10,68,56,44,48,34,23,83,49,18,30.46,30.37,30.31,10,10,10,18,10,28,0.01,0,,353
2011-11-11,66,52,37,56,41,29,87,61,26,30.33,30.24,30.12,10,10,10,10,5,,0.00,0,,167
2011-11-12,79,70,60,69,63,57,97,80,58,30.10,30.03,29.97,10,10,10,15,9,22,0.01,3,,162
2011-11-13,80,73,66,73,71,67,100,92,76,29.99,29.93,29.87,10,9,6,15,7,,0.00,6,,176
2011-11-14,81,76,70,73,71,69,100,89,74,29.93,29.85,29.79,10,10,8,17,10,23,0.00,5,,146
2011-11-15,78,73,68,73,69,64,100,89,69,29.79,29.75,29.66,10,9,7,16,10,18,0.01,4,Thunderstorm,179
2011-11-16,87,76,62,66,56,45,93,61,23,30.13,29.89,29.78,10,10,10,21,10,30,0.00,0,,270
2011-11-17,70,58,45,54,45,36,84,63,31,30.37,30.27,30.15,10,10,10,25,16,32,0.00,2,,25
2011-11-18,75,60,46,66,55,39,90,74,55,30.25,30.12,30.01,10,10,10,20,11,26,0.00,2,,102
2011-11-19,78,74,69,73,71,66,97,89,78,30.00,29.97,29.91,10,10,9,17,11,26,0.00,6,,148
2011-11-20,82,76,71,74,73,72,100,91,74,30.10,30.04,29.99,10,9,6,20,11,24,0.00,5,,144
2011-11-21,82,78,73,75,74,73,100,93,74,30.09,30.02,29.90,10,8,6,23,13,29,0.00,4,,141
2011-11-22,79,67,54,76,68,53,100,94,68,30.18,29.98,29.88,10,8,2,21,10,26,0.34,6,Rain-Thunderstorm,281
2011-11-23,73,62,51,59,54,51,100,85,48,30.28,30.23,30.18,10,8,1,16,9,,0.00,0,,24
2011-11-24,73,60,48,60,54,48,100,91,57,30.30,30.24,30.16,10,6,0,13,4,20,0.00,1,Fog,55
2011-11-25,79,66,53,67,61,54,100,80,50,30.14,30.02,29.91,10,10,6,20,10,25,0.00,2,,111
2011-11-26,75,64,52,72,64,42,100,91,63,30.20,29.96,29.89,10,8,1,26,10,36,1.55,6,Rain-Thunderstorm,207
2011-11-27,57,47,37,42,29,21,83,51,25,30.32,30.27,30.21,10,10,10,28,16,38,0.00,1,,317
2011-11-28,64,48,32,45,30,20,97,58,18,30.25,30.15,30.06,10,10,10,10,7,,0.00,0,,296
2011-11-29,70,56,41,42,36,28,89,57,22,30.22,30.14,30.06,10,10,10,15,7,,0.00,0,,36
2011-11-30,66,52,39,48,41,36,96,73,34,30.27,30.19,30.12,10,10,4,9,6,,0.00,0,,55